DW4847 Weather Reports


Display with metric or nautical units.
time (UTC)temp
F
wind
direction
speed
MPH
gust
MPH
rain 1hr
in
rain 24hr
in
rain mn
in
humidity
%
barometer
mb
20260509231036 49 111 0.0 1.0 0.00 0.53 0.53 91 1009.3
20260509230538 49 113 0.0 1.0 0.00 0.53 0.53 91 1009.4
20260509230032 49 111 0.0 2.0 0.00 0.53 0.53 91 1009.5
20260509225547 49 111 1.0 2.0 0.00 0.53 0.53 91 1009.4
20260509225034 49 111 0.0 1.0 0.00 0.53 0.53 91 1009.6
20260509224549 49 111 0.0 2.0 0.00 0.53 0.53 91 1009.5
20260509224034 49 111 0.0 2.0 0.00 0.53 0.53 90 1009.5
20260509223529 49 125 0.0 3.0 0.00 0.53 0.53 90 1009.5
20260509223104 50 107 0.0 1.0 0.00 0.53 0.53 90 1009.5
20260509222529 50 124 0.0 1.0 0.00 0.53 0.53 90 1009.5
20260509222044 50 124 0.0 4.0 0.00 0.53 0.53 90 1009.4
20260509221538 50 175 1.0 4.0 0.00 0.53 0.53 90 1009.3
20260509221024 50 132 1.0 3.0 0.01 0.53 0.53 90 1009.4
20260509220538 50 284 0.0 3.0 0.01 0.53 0.53 90 1009.5
20260509220053 50 169 0.0 3.0 0.01 0.53 0.53 90 1009.5
20260509215536 50 169 1.0 3.0 0.01 0.53 0.53 90 1009.5
20260509215051 50 163 0.0 2.0 0.01 0.53 0.53 91 1009.5
20260509214545 50 209 0.0 5.0 0.01 0.53 0.53 90 1009.4
20260509214031 50 209 1.0 5.0 0.02 0.53 0.53 90 1009.4
20260509213545 50 281 0.0 2.0 0.02 0.53 0.53 90 1009.5
20260509213032 50 71 0.0 3.0 0.04 0.53 0.53 90 1009.5
20260509212527 50 155 0.0 3.0 0.04 0.53 0.53 90 1009.6
20260509212034 50 169 1.0 3.0 0.05 0.53 0.53 90 1009.7
20260509211528 49 130 1.0 3.0 0.06 0.53 0.53 90 1009.7
20260509211039 50 193 1.0 3.0 0.05 0.52 0.52 90 1009.7
20260509210525 49 32 1.0 4.0 0.06 0.52 0.52 90 1009.6
20260509210040 49 246 0.0 4.0 0.06 0.52 0.52 90 1009.7
20260509205555 50 323 1.0 4.0 0.07 0.52 0.52 89 1009.7
20260509205039 50 139 0.0 5.0 0.07 0.52 0.52 89 1009.7
20260509204533 50 184 0.0 4.0 0.07 0.52 0.52 90 1009.8
20260509204048 50 335 1.0 4.0 0.07 0.51 0.51 90 1009.8
20260509203533 50 130 2.0 4.0 0.06 0.50 0.50 90 1010.0
20260509203045 50 302 1.0 3.0 0.06 0.49 0.49 91 1009.9
20260509202530 50 170 1.0 3.0 0.06 0.49 0.49 91 1010.0
20260509202032 50 169 0.0 5.0 0.06 0.48 0.48 90 1010.2
20260509201538 50 219 2.0 5.0 0.06 0.47 0.47 90 1010.3
20260509201053 50 188 1.0 9.0 0.07 0.47 0.47 91 1010.3
20260509200527 50 205 3.0 9.0 0.07 0.46 0.46 92 1010.3
20260509200034 50 217 1.0 5.0 0.07 0.46 0.46 92 1010.4
20260509195546 50 300 1.0 4.0 0.07 0.45 0.45 93 1010.4
20260509195038 50 186 1.0 2.0 0.07 0.45 0.45 93 1010.3
20260509194525 50 254 0.0 2.0 0.08 0.45 0.45 93 1010.4
20260509194039 50 248 0.0 3.0 0.07 0.44 0.44 93 1010.5
20260509193534 50 196 0.0 1.0 0.08 0.44 0.44 93 1010.4
20260509193039 50 196 0.0 1.0 0.07 0.43 0.43 93 1010.5
20260509192534 49 128 0.0 1.0 0.07 0.43 0.43 93 1010.5
20260509192035 49 128 0.0 1.0 0.07 0.42 0.42 93 1010.4
20260509191527 49 128 0.0 1.0 0.06 0.41 0.41 93 1010.5
20260509191101 49 127 0.0 1.0 0.05 0.40 0.40 93 1010.4
20260509190528 49 127 0.0 0.0 0.04 0.39 0.39 93 1010.4
20260509190023 49 127 0.0 1.0 0.05 0.39 0.39 92 1010.4
20260509185538 49 127 0.0 2.0 0.04 0.38 0.38 92 1010.5
20260509185054 49 127 0.0 2.0 0.05 0.38 0.38 92 1010.6
20260509184538 49 87 0.0 0.0 0.04 0.37 0.37 92 1010.5
20260509184033 48 87 0.0 0.0 0.04 0.37 0.37 92 1010.4
20260509183548 48 87 0.0 0.0 0.03 0.36 0.36 92 1010.4
20260509183031 48 87 0.0 0.0 0.03 0.36 0.36 92 1010.5
20260509182544 48 87 0.0 1.0 0.04 0.36 0.36 92 1010.5
20260509182027 48 84 0.0 0.0 0.03 0.35 0.35 92 1010.5
20260509181541 48 84 0.0 1.0 0.03 0.35 0.35 92 1010.5
20260509181052 48 84 0.0 1.0 0.03 0.35 0.35 92 1010.5
20260509180532 48 150 0.0 1.0 0.02 0.34 0.34 92 1010.6
20260509180026 48 150 0.0 1.0 0.03 0.34 0.34 92 1010.6
20260509175531 48 150 0.0 2.0 0.03 0.34 0.34 92 1010.6
20260509175023 48 151 0.0 2.0 0.02 0.33 0.33 91 1010.6
20260509174535 48 153 1.0 2.0 0.02 0.33 0.33 92 1010.7
20260509174035 48 140 1.0 2.0 0.03 0.33 0.33 92 1010.8
20260509173526 48 159 0.0 3.0 0.03 0.33 0.33 92 1010.7
20260509173031 47 159 1.0 3.0 0.03 0.33 0.33 92 1010.8
20260509172611 47 152 0.0 2.0 0.02 0.32 0.32 92 1010.8
20260509172035 47 151 0.0 1.0 0.02 0.32 0.32 92 1010.9
20260509171527 47 151 0.0 3.0 0.03 0.32 0.32 92 1010.9
20260509171041 47 153 1.0 3.0 0.03 0.32 0.32 91 1011.1
20260509170532 47 153 1.0 3.0 0.03 0.32 0.32 91 1011.1
20260509170037 47 140 0.0 1.0 0.02 0.31 0.31 92 1011.2
20260509165531 47 157 0.0 2.0 0.02 0.31 0.31 91 1011.3
20260509165045 47 157 0.0 1.0 0.03 0.31 0.31 91 1011.3
20260509164531 47 158 0.0 2.0 0.03 0.31 0.31 91 1011.4
20260509164044 47 158 0.0 2.0 0.02 0.30 0.30 92 1011.3
20260509163539 47 157 1.0 2.0 0.02 0.30 0.30 91 1011.4
20260509163054 47 149 1.0 2.0 0.02 0.30 0.30 91 1011.3
20260509162539 47 166 1.0 2.0 0.02 0.30 0.30 91 1011.3
20260509162033 46 166 1.0 2.0 0.02 0.30 0.30 91 1011.4
20260509161548 46 221 0.0 1.0 0.01 0.29 0.29 91 1011.5
20260509161034 46 327 0.0 2.0 0.02 0.29 0.29 91 1011.5
20260509160545 46 37 1.0 2.0 0.02 0.29 0.29 91 1011.6
20260509160031 46 123 0.0 2.0 0.02 0.29 0.29 91 1011.6
20260509155525 46 117 0.0 1.0 0.02 0.29 0.29 91 1011.6
20260509155029 46 117 0.0 1.0 0.01 0.28 0.28 91 1011.5
20260509154523 46 117 0.0 1.0 0.01 0.28 0.28 91 1011.6
20260509154058 45 113 0.0 1.0 0.01 0.28 0.28 91 1011.7
20260509153549 45 113 0.0 1.0 0.01 0.28 0.28 91 1011.7
20260509153034 45 110 0.0 1.0 0.01 0.28 0.28 91 1011.7
20260509152528 45 102 0.0 1.0 0.01 0.28 0.28 91 1011.7
20260509152035 45 182 0.0 1.0 0.02 0.28 0.28 91 1011.7
20260509151537 45 182 0.0 1.0 0.02 0.28 0.28 91 1011.8
20260509151024 45 183 0.0 1.0 0.01 0.27 0.27 91 1011.8
20260509150538 45 183 0.0 1.0 0.02 0.27 0.27 92 1011.8
20260509150024 44 183 0.0 1.0 0.02 0.27 0.27 92 1011.8
20260509145538 44 183 0.0 2.0 0.02 0.27 0.27 92 1011.8
20260509145033 44 183 0.0 2.0 0.03 0.27 0.27 91 1011.9
20260509144541 44 183 0.0 1.0 0.03 0.27 0.27 92 1011.9
20260509144035 44 183 0.0 1.0 0.03 0.27 0.27 92 1012.0
20260509143523 44 182 0.0 1.0 0.03 0.27 0.27 92 1011.9
20260509143037 43 182 0.0 0.0 0.03 0.27 0.27 92 1012.0
20260509142532 43 182 0.0 1.0 0.03 0.27 0.27 92 1012.1
20260509142036 43 182 0.0 0.0 0.02 0.26 0.26 92 1012.1
20260509141551 42 182 0.0 1.0 0.02 0.26 0.26 92 1012.1
20260509141045 42 181 0.0 1.0 0.03 0.26 0.26 92 1012.2
20260509140556 42 182 0.0 1.0 0.02 0.25 0.25 92 1012.2
20260509140040 42 182 0.0 2.0 0.02 0.25 0.25 92 1012.2
20260509135535 42 183 0.0 2.0 0.01 0.24 0.24 92 1012.2
20260509135049 42 196 0.0 2.0 0.01 0.24 0.24 92 1012.2
20260509134532 42 229 0.0 1.0 0.01 0.24 0.24 92 1012.2
20260509134047 42 232 0.0 1.0 0.01 0.24 0.24 93 1012.1
20260509133532 41 205 0.0 2.0 0.01 0.24 0.24 93 1012.2
20260509133025 41 209 0.0 2.0 0.02 0.24 0.24 92 1012.3
20260509132531 41 211 0.0 1.0 0.02 0.24 0.24 92 1012.4
20260509132026 41 211 0.0 0.0 0.02 0.24 0.24 93 1012.5
20260509131541 41 211 0.0 1.0 0.02 0.24 0.24 93 1012.5
20260509131027 41 221 0.0 1.0 0.01 0.23 0.23 92 1012.6
20260509130601 41 229 0.0 0.0 0.01 0.23 0.23 93 1012.5
20260509130034 40 231 0.0 0.0 0.02 0.23 0.23 93 1012.6
20260509125608 40 234 0.0 1.0 0.02 0.23 0.23 93 1012.7
20260509125053 40 234 0.0 1.0 0.02 0.23 0.23 93 1012.5
20260509124525 40 234 0.0 2.0 0.02 0.23 0.23 93 1012.6
20260509124040 40 236 0.0 2.0 0.02 0.23 0.23 93 1012.7
20260509123525 40 268 0.0 0.0 0.02 0.23 0.23 93 1012.5
20260509123040 40 268 0.0 0.0 0.01 0.22 0.22 93 1012.6
20260509122526 40 271 0.0 1.0 0.01 0.22 0.22 93 1012.7
20260509122037 40 287 0.0 0.0 0.01 0.22 0.22 93 1012.6
20260509121551 40 290 0.0 0.0 0.01 0.22 0.22 93 1012.6
20260509121048 40 290 0.0 0.0 0.01 0.22 0.22 93 1012.6
20260509120530 40 291 0.0 0.0 0.01 0.22 0.22 93 1012.6
20260509120045 40 291 0.0 0.0 0.00 0.21 0.21 93 1012.7
20260509115558 40 291 0.0 0.0 0.01 0.21 0.21 93 1012.6
20260509115044 40 291 0.0 0.0 0.01 0.21 0.21 93 1012.7
20260509114537 39 291 0.0 0.0 0.02 0.21 0.21 93 1012.7
20260509114053 39 291 0.0 0.0 0.02 0.21 0.21 93 1012.7
20260509113547 39 291 0.0 0.0 0.02 0.21 0.21 93 1012.7
20260509113031 39 291 0.0 0.0 0.03 0.21 0.21 93 1012.8
20260509112525 39 291 0.0 0.0 0.04 0.21 0.21 93 1012.8
20260509112040 39 291 0.0 0.0 0.04 0.21 0.21 93 1012.8
20260509111525 39 292 0.0 0.0 0.05 0.21 0.21 93 1012.9
20260509111039 39 293 0.0 0.0 0.05 0.21 0.21 93 1013.0
20260509110525 39 293 0.0 0.0 0.06 0.21 0.21 93 1013.0
20260509110055 39 293 0.0 0.0 0.07 0.21 0.21 93 1013.0
20260509105529 39 293 0.0 0.0 0.07 0.20 0.20 93 1013.1
20260509105044 38 293 0.0 0.0 0.07 0.20 0.20 93 1013.0
20260509104550 38 293 0.0 0.0 0.07 0.19 0.19 93 1013.1
20260509104112 38 293 0.0 0.0 0.08 0.19 0.19 93 1013.2
20260509103536 38 293 0.0 0.0 0.09 0.19 0.19 93 1013.2
20260509103023 38 292 0.0 0.0 0.09 0.18 0.18 93 1013.4
20260509102606 38 293 0.0 0.0 0.09 0.17 0.17 93 1013.3
20260509102029 38 293 0.0 0.0 0.09 0.17 0.17 92 1013.3
20260509101544 37 293 0.0 0.0 0.09 0.16 0.16 93 1013.2
20260509101055 37 293 0.0 0.0 0.09 0.16 0.16 92 1013.2
20260509100549 37 293 0.0 0.0 0.09 0.15 0.15 92 1013.1
20260509100034 37 293 0.0 0.0 0.08 0.14 0.14 92 1013.0
20260509095529 37 293 0.0 0.0 0.08 0.13 0.13 92 1013.0
20260509095043 37 293 0.0 0.0 0.08 0.13 0.13 92 1012.9
20260509094526 37 293 0.0 0.0 0.08 0.12 0.12 92 1013.0
20260509094037 37 293 0.0 0.0 0.07 0.11 0.11 92 1013.0
20260509093552 37 293 0.0 0.0 0.07 0.10 0.10 92 1013.0
20260509093037 36 293 0.0 0.0 0.06 0.09 0.09 92 1012.9
20260509092531 36 293 0.0 0.0 0.06 0.08 0.08 92 1013.0
20260509092047 36 293 0.0 0.0 0.06 0.08 0.08 92 1013.0
20260509091534 36 293 0.0 0.0 0.06 0.07 0.07 92 1012.9
20260509091048 36 293 0.0 0.0 0.06 0.07 0.07 92 1012.8
20260509090602 36 293 0.0 0.0 0.06 0.06 0.06 92 1012.7
20260509090025 36 293 0.0 0.0 0.06 0.06 0.06 92 1012.7
20260509085539 36 293 0.0 0.0 0.05 0.05 0.05 91 1012.9
20260509085026 36 292 0.0 0.0 0.05 0.05 0.05 91 1012.9
20260509084540 36 293 0.0 0.0 0.04 0.04 0.04 91 1012.9
20260509084027 35 296 0.0 1.0 0.04 0.04 0.04 91 1013.0
20260509083610 35 296 0.0 1.0 0.03 0.03 0.03 91 1013.0
20260509083034 35 296 0.0 0.0 0.03 0.03 0.03 91 1012.9
20260509082549 35 296 0.0 0.0 0.02 0.02 0.02 91 1012.9
20260509082032 35 296 0.0 0.0 0.02 0.02 0.02 91 1012.9
20260509081546 35 296 0.0 0.0 0.01 0.01 0.01 91 1012.8
20260509081054 35 296 0.0 0.0 0.00 0.00 0.00 91 1012.8
20260509080548 34 296 0.0 0.0 0.00 0.00 0.00 91 1012.7
20260509080032 34 296 0.0 0.0 0.00 0.00 0.00 91 1012.5
20260509075526 34 296 0.0 0.0 0.00 0.00 0.00 91 1012.4
20260509075032 34 296 0.0 0.0 0.00 0.00 0.00 91 1012.4
20260509074526 34 296 0.0 0.0 0.00 0.00 0.00 91 1012.4
20260509074040 34 296 0.0 0.0 0.00 0.00 0.00 91 1012.3
20260509073524 33 296 0.0 0.0 0.00 0.00 0.00 91 1012.3
20260509073038 33 296 0.0 0.0 0.00 0.00 0.00 91 1012.3
20260509072524 33 296 0.0 0.0 0.00 0.00 0.00 91 1012.4
20260509072039 33 296 0.0 0.0 0.00 0.00 0.00 91 1012.4
20260509071525 32 296 0.0 0.0 0.00 0.00 0.00 91 1012.5
20260509071109 32 296 0.0 0.0 0.00 0.00 0.00 91 1012.4
20260509070534 32 296 0.0 0.0 0.00 0.00 0.00 90 1012.4
20260509070046 32 296 0.0 0.0 0.00 0.00 0.00 90 1012.4
20260509065531 32 296 0.0 0.0 0.00 0.00 0.00 90 1012.4
20260509065026 32 296 0.0 0.0 0.00 0.00 0.00 90 1012.4
20260509064532 32 296 0.0 0.0 0.00 0.00 0.00 90 1012.5
20260509064027 32 296 0.0 0.0 0.00 0.00 0.00 89 1012.5
20260509063541 32 296 0.0 0.0 0.00 0.00 0.00 89 1012.5
20260509063046 32 296 0.0 0.0 0.00 0.00 0.00 89 1012.6
20260509062539 32 296 0.0 0.0 0.00 0.00 0.00 89 1012.6
20260509062034 32 296 0.0 0.0 0.00 0.00 0.00 89 1012.6
20260509061603 32 296 0.0 0.0 0.00 0.00 0.00 89 1012.6
20260509061027 32 296 0.0 1.0 0.00 0.00 0.00 89 1012.7
20260509060538 32 296 0.0 1.0 0.00 0.00 0.00 89 1012.8
20260509060024 32 296 0.0 0.0 0.00 0.00 0.00 89 1012.7
20260509055536 32 296 0.0 0.0 0.00 0.00 0.00 89 1012.7
20260509055023 32 296 0.0 0.0 0.00 0.00 0.00 89 1012.8
20260509054536 32 296 0.0 0.0 0.00 0.00 0.00 89 1012.9
20260509054030 32 296 0.0 0.0 0.00 0.00 0.00 89 1012.9
20260509053537 32 296 0.0 0.0 0.00 0.00 0.00 89 1012.9
20260509053032 32 296 0.0 0.0 0.00 0.00 0.00 88 1012.9
20260509052546 32 296 0.0 0.0 0.00 0.00 0.00 88 1012.9
20260509052032 32 296 0.0 0.0 0.00 0.00 0.00 88 1012.8
20260509051547 32 296 0.0 0.0 0.00 0.00 0.00 88 1012.7
20260509051034 32 296 0.0 0.0 0.00 0.00 0.00 88 1012.8
20260509050529 32 296 0.0 0.0 0.00 0.00 0.00 88 1012.8
20260509050104 32 296 0.0 0.0 0.00 0.00 0.00 87 1012.8
20260509045527 32 296 0.0 0.0 0.00 0.00 0.00 87 1012.7
20260509045021 32 296 0.0 0.0 0.00 0.00 0.00 87 1012.7
20260509044527 32 296 0.0 0.0 0.00 0.00 0.00 87 1012.6
20260509044021 32 296 0.0 0.0 0.00 0.00 0.00 87 1012.6
20260509043555 33 296 0.0 0.0 0.00 0.00 0.00 87 1012.7
20260509043045 33 296 0.0 0.0 0.00 0.00 0.00 87 1012.8
20260509042540 33 296 0.0 0.0 0.00 0.00 0.00 87 1012.7
20260509042024 33 296 0.0 0.0 0.00 0.00 0.00 87 1012.7
20260509041600 33 296 0.0 0.0 0.00 0.00 0.00 86 1012.7
20260509041032 33 296 0.0 0.0 0.00 0.00 0.00 86 1012.7
20260509040537 33 296 0.0 0.0 0.00 0.00 0.00 86 1012.7
20260509040048 33 296 0.0 0.0 0.00 0.00 0.00 86 1012.7
20260509035601 33 296 0.0 0.0 0.00 0.00 0.00 86 1012.7
20260509035035 33 296 0.0 0.0 0.00 0.00 0.00 86 1012.6
20260509034522 33 296 0.0 0.0 0.00 0.00 0.00 85 1012.7
20260509034036 34 296 0.0 0.0 0.00 0.00 0.00 85 1012.6
20260509033523 34 296 0.0 0.0 0.00 0.00 0.00 85 1012.7
20260509033034 34 296 0.0 0.0 0.00 0.00 0.00 85 1012.6
20260509032549 34 296 0.0 0.0 0.00 0.00 0.00 84 1012.6
20260509032035 34 296 0.0 0.0 0.00 0.00 0.00 84 1012.5
20260509031529 34 296 0.0 0.0 0.00 0.00 0.00 84 1012.5
20260509031036 35 296 0.0 0.0 0.00 0.00 0.00 84 1012.5
20260509030530 35 296 0.0 0.0 0.00 0.00 0.00 83 1012.5
20260509030044 35 296 0.0 0.0 0.00 0.00 0.00 83 1012.4
20260509025528 35 296 0.0 0.0 0.00 0.00 0.00 83 1012.3
20260509025022 35 296 0.0 0.0 0.00 0.00 0.00 83 1012.4
20260509024523 35 296 0.0 0.0 0.00 0.00 0.00 82 1012.4
20260509024039 35 296 0.0 0.0 0.00 0.00 0.00 82 1012.4
20260509023525 35 296 0.0 0.0 0.00 0.00 0.00 82 1012.3
20260509022544 36 296 0.0 0.0 0.00 0.00 0.00 81 1012.3
20260509022029 36 296 0.0 0.0 0.00 0.00 0.00 81 1012.2
20260509021524 36 296 0.0 0.0 0.00 0.00 0.00 80 1012.1
20260509021038 36 296 0.0 0.0 0.00 0.00 0.00 80 1012.0
20260509020524 37 296 0.0 0.0 0.00 0.00 0.00 79 1012.0
20260509020038 37 296 0.0 0.0 0.00 0.00 0.00 79 1012.0
20260509015525 37 296 0.0 0.0 0.00 0.00 0.00 79 1012.0
20260509015100 37 296 0.0 0.0 0.00 0.00 0.00 79 1012.0
20260509014533 38 296 0.0 0.0 0.00 0.00 0.00 78 1011.9
20260509014049 38 296 0.0 0.0 0.00 0.00 0.00 77 1011.9
20260509013534 38 296 0.0 0.0 0.00 0.00 0.00 77 1011.9
20260509013049 38 296 0.0 0.0 0.00 0.00 0.00 76 1011.7
20260509012523 39 296 0.0 0.0 0.00 0.00 0.00 76 1011.8
20260509012058 39 296 0.0 1.0 0.00 0.00 0.00 75 1011.6
20260509011548 39 296 0.0 1.0 0.00 0.00 0.00 74 1011.5
20260509011031 40 297 0.0 0.0 0.00 0.00 0.00 74 1011.4
20260509010546 40 297 0.0 0.0 0.00 0.00 0.00 73 1011.4
20260509010031 41 297 0.0 0.0 0.00 0.00 0.00 72 1011.2
20260509005526 41 297 0.0 0.0 0.00 0.00 0.00 72 1011.1
20260509005033 41 297 0.0 0.0 0.00 0.00 0.00 72 1011.0
20260509004527 42 297 0.0 0.0 0.00 0.00 0.00 71 1011.0
20260509004038 42 297 0.0 0.0 0.00 0.00 0.00 71 1010.9
20260509003524 42 297 0.0 0.0 0.00 0.00 0.00 69 1010.8
20260509003039 43 297 0.0 0.0 0.00 0.00 0.00 69 1010.8
20260509002526 43 297 0.0 1.0 0.00 0.00 0.00 68 1010.6
20260509002041 44 297 0.0 1.0 0.00 0.00 0.00 68 1010.6
20260509001528 45 297 0.0 1.0 0.00 0.00 0.00 67 1010.4
20260509001111 45 298 0.0 0.0 0.00 0.00 0.00 66 1010.4
20260509000536 46 298 0.0 1.0 0.00 0.00 0.00 62 1010.5
20260509000051 46 297 0.0 1.0 0.00 0.00 0.00 63 1010.4
20260508235538 47 297 0.0 1.0 0.00 0.00 0.00 61 1010.4
20260508235053 47 297 0.0 4.0 0.00 0.00 0.00 59 1010.2
20260508234546 47 297 1.0 4.0 0.00 0.00 0.00 58 1010.2
20260508234101 47 259 1.0 3.0 0.00 0.00 0.00 58 1010.0
20260508233525 48 263 1.0 3.0 0.00 0.00 0.00 57 1010.0
20260508233057 48 219 1.0 2.0 0.00 0.00 0.00 56 1010.0
20260508232550 48 211 0.0 2.0 0.00 0.00 0.00 57 1010.0
20260508232037 48 325 0.0 4.0 0.00 0.00 0.00 57 1010.0
20260508231530 48 254 1.0 4.0 0.00 0.00 0.00 56 1009.9